Retour au catalogue

BREEZE-M DEB

LostHEO
NORAD 39331·DEBRIS·🇷🇺 Russia

Lancé Mar 14, 2008 depuis Baikonur Cosmodrome

Loading…

Prochains Passages (prochaines 24 heures)

TLE

PériméSource: Space-Track

Époque: Oct 22, 2015, 00:29 UTC

1 39331U 08011DJ  15295.02076716  .00000025  00000-0  83052-3 0  9998
2 39331  48.7847 218.8898 6477118 182.6866 170.6102  3.16317968 40920

Suivez BREEZE-M DEB en temps réel avec AllMySat

Download on the App Store